Time,TemperatureF,DewpointF,PressureIn,WindDirection,WindDirectionDegrees,WindSpeedMPH,WindSpeedGustMPH,Humidity,HourlyPrecipIn,Conditions,Clouds,dailyrainin,SolarRadiationWatts/m^2,SoftwareType,DateUTC
2013-04-25 00:01:00,53.5,47.1,29.90,ESE,107,1.0,6.0,79,0.00,,,0.00,0,HR-IXP-WINDi_r2_v1.2,2013-04-25 04:01:00,
2013-04-25 00:06:00,53.4,47.0,29.89,West,279,4.0,6.0,79,0.00,,,0.00,0,HR-IXP-WINDi_r2_v1.2,2013-04-25 04:06:00,
2013-04-25 00:11:00,53.3,47.2,29.90,ENE,74,0.0,7.0,80,0.00,,,0.00,0,HR-IXP-WINDi_r2_v1.2,2013-04-25 04:11:00,
2013-04-25 00:17:00,53.2,47.1,29.90,NE,51,2.0,7.0,80,0.00,,,0.00,0,HR-IXP-WINDi_r2_v1.2,2013-04-25 04:17:00,
2013-04-25 00:22:00,53.2,47.1,29.90,NE,56,1.0,5.0,80,0.00,,,0.00,0,HR-IXP-WINDi_r2_v1.2,2013-04-25 04:22:00,
2013-04-25 00:27:00,53.2,47.1,29.90,NNW,342,3.0,5.0,80,0.00,,,0.00,0,HR-IXP-WINDi_r2_v1.2,2013-04-25 04:27:00,
2013-04-25 00:32:00,53.2,47.5,29.89,West,261,0.0,7.0,81,0.00,,,0.00,0,HR-IXP-WINDi_r2_v1.2,2013-04-25 04:32:00,
2013-04-25 00:37:00,53.2,47.5,29.89,East,95,0.0,7.0,81,0.00,,,0.00,0,HR-IXP-WINDi_r2_v1.2,2013-04-25 04:37:00,
2013-04-25 00:43:00,53.1,47.4,29.89,West,263,1.0,7.0,81,0.00,,,0.00,0,HR-IXP-WINDi_r2_v1.2,2013-04-25 04:43:00,
2013-04-25 00:48:00,53.1,47.7,29.89,WNW,298,1.0,6.0,82,0.00,,,0.00,0,HR-IXP-WINDi_r2_v1.2,2013-04-25 04:48:00,
2013-04-25 00:53:00,53.2,47.8,29.89,ENE,77,1.0,6.0,82,0.00,,,0.00,0,HR-IXP-WINDi_r2_v1.2,2013-04-25 04:53:00,
2013-04-25 00:58:00,53.2,47.8,29.88,WSW,251,1.0,6.0,82,0.00,,,0.00,0,HR-IXP-WINDi_r2_v1.2,2013-04-25 04:58:00,
2013-04-25 01:03:00,53.2,47.8,29.88,West,261,0.0,3.0,82,0.00,,,0.00,0,HR-IXP-WINDi_r2_v1.2,2013-04-25 05:03:00,
2013-04-25 01:09:00,53.3,48.2,29.88,West,261,1.0,3.0,83,0.00,,,0.00,0,HR-IXP-WINDi_r2_v1.2,2013-04-25 05:09:00,
2013-04-25 01:14:00,53.4,48.3,29.88,SE,134,1.0,4.0,83,0.00,,,0.00,0,HR-IXP-WINDi_r2_v1.2,2013-04-25 05:14:00,
2013-04-25 01:19:00,53.5,48.4,29.87,East,86,1.0,5.0,83,0.00,,,0.00,0,HR-IXP-WINDi_r2_v1.2,2013-04-25 05:19:00,
2013-04-25 01:24:00,53.7,48.9,29.88,West,271,0.0,7.0,84,0.00,,,0.00,0,HR-IXP-WINDi_r2_v1.2,2013-04-25 05:24:00,
2013-04-25 01:29:00,53.8,49.0,29.87,NE,54,1.0,7.0,84,0.00,,,0.00,0,HR-IXP-WINDi_r2_v1.2,2013-04-25 05:29:00,
2013-04-25 01:35:00,53.9,49.1,29.86,WSW,244,2.0,7.0,84,0.00,,,0.00,0,HR-IXP-WINDi_r2_v1.2,2013-04-25 05:35:00,
2013-04-25 01:40:00,54.1,49.6,29.87,NW,323,2.0,7.0,85,0.00,,,0.00,0,HR-IXP-WINDi_r2_v1.2,2013-04-25 05:40:00,
2013-04-25 01:45:00,54.2,49.7,29.86,ESE,109,2.0,7.0,85,0.00,,,0.00,0,HR-IXP-WINDi_r2_v1.2,2013-04-25 05:45:00,
2013-04-25 01:50:00,54.4,49.9,29.86,West,267,3.0,7.0,85,0.00,,,0.00,0,HR-IXP-WINDi_r2_v1.2,2013-04-25 05:50:00,
2013-04-25 01:56:00,54.5,50.3,29.86,West,266,0.0,6.0,86,0.00,,,0.00,0,HR-IXP-WINDi_r2_v1.2,2013-04-25 05:56:00,
2013-04-25 02:01:00,54.7,50.5,29.87,SSW,194,0.0,5.0,86,0.00,,,0.00,0,HR-IXP-WINDi_r2_v1.2,2013-04-25 06:01:00,
2013-04-25 02:06:00,54.8,50.6,29.87,South,178,1.0,5.0,86,0.00,,,0.00,0,HR-IXP-WINDi_r2_v1.2,2013-04-25 06:06:00,
2013-04-25 02:11:00,55.0,50.8,29.87,SW,223,1.0,7.0,86,0.00,,,0.00,0,HR-IXP-WINDi_r2_v1.2,2013-04-25 06:11:00,
2013-04-25 02:16:00,55.0,50.8,29.87,WSW,252,0.0,10.0,86,0.00,,,0.00,0,HR-IXP-WINDi_r2_v1.2,2013-04-25 06:16:00,
2013-04-25 02:22:00,55.1,50.9,29.87,WSW,240,0.0,10.0,86,0.00,,,0.00,0,HR-IXP-WINDi_r2_v1.2,2013-04-25 06:22:00,
2013-04-25 02:27:00,55.2,51.0,29.87,West,259,0.0,3.0,86,0.00,,,0.00,0,HR-IXP-WINDi_r2_v1.2,2013-04-25 06:27:00,
2013-04-25 02:32:00,55.2,51.0,29.87,East,80,1.0,4.0,86,0.00,,,0.00,0,HR-IXP-WINDi_r2_v1.2,2013-04-25 06:32:00,
2013-04-25 02:37:00,55.2,51.0,29.87,SW,219,0.0,4.0,86,0.00,,,0.00,0,HR-IXP-WINDi_r2_v1.2,2013-04-25 06:37:00,
2013-04-25 02:43:00,55.3,51.1,29.86,WSW,244,0.0,4.0,86,0.00,,,0.00,0,HR-IXP-WINDi_r2_v1.2,2013-04-25 06:43:00,
2013-04-25 02:48:00,55.3,51.1,29.86,WSW,257,0.0,3.0,86,0.00,,,0.00,0,HR-IXP-WINDi_r2_v1.2,2013-04-25 06:48:00,
2013-04-25 02:53:00,55.4,51.2,29.86,West,269,0.0,4.0,86,0.00,,,0.00,0,HR-IXP-WINDi_r2_v1.2,2013-04-25 06:53:00,
2013-04-25 02:58:00,55.4,51.2,29.86,West,259,0.0,4.0,86,0.00,,,0.00,0,HR-IXP-WINDi_r2_v1.2,2013-04-25 06:58:00,
2013-04-25 03:04:00,55.5,51.3,29.86,West,259,0.0,5.0,86,0.00,,,0.00,0,HR-IXP-WINDi_r2_v1.2,2013-04-25 07:04:00,
2013-04-25 03:09:00,55.6,51.4,29.87,SW,235,0.0,5.0,86,0.00,,,0.00,0,HR-IXP-WINDi_r2_v1.2,2013-04-25 07:09:00,
2013-04-25 03:14:00,55.7,51.5,29.87,West,271,0.0,4.0,86,0.00,,,0.00,0,HR-IXP-WINDi_r2_v1.2,2013-04-25 07:14:00,
2013-04-25 03:19:00,55.8,51.6,29.88,ENE,67,0.0,4.0,86,0.00,,,0.00,0,HR-IXP-WINDi_r2_v1.2,2013-04-25 07:19:00,
2013-04-25 03:25:00,55.9,51.7,29.88,WSW,242,1.0,2.0,86,0.00,,,0.00,0,HR-IXP-WINDi_r2_v1.2,2013-04-25 07:25:00,
2013-04-25 03:30:00,56.0,51.8,29.89,WSW,254,0.0,3.0,86,0.00,,,0.00,0,HR-IXP-WINDi_r2_v1.2,2013-04-25 07:30:00,
2013-04-25 03:35:00,56.1,51.9,29.89,WSW,245,0.0,4.0,86,0.00,,,0.00,0,HR-IXP-WINDi_r2_v1.2,2013-04-25 07:35:00,
2013-04-25 03:41:00,56.2,52.0,29.89,WSW,250,1.0,4.0,86,0.00,,,0.00,0,HR-IXP-WINDi_r2_v1.2,2013-04-25 07:41:00,
2013-04-25 03:46:00,56.4,52.2,29.89,SW,234,0.0,3.0,86,0.00,,,0.00,0,HR-IXP-WINDi_r2_v1.2,2013-04-25 07:46:00,
2013-04-25 03:51:00,56.5,52.3,29.89,SSE,152,0.0,3.0,86,0.00,,,0.00,0,HR-IXP-WINDi_r2_v1.2,2013-04-25 07:51:00,
2013-04-25 03:56:00,56.6,52.4,29.89,WSW,250,0.0,3.0,86,0.00,,,0.00,0,HR-IXP-WINDi_r2_v1.2,2013-04-25 07:56:00,
2013-04-25 04:01:00,56.6,52.1,29.90,West,263,0.0,3.0,85,0.00,,,0.00,0,HR-IXP-WINDi_r2_v1.2,2013-04-25 08:01:00,
2013-04-25 04:06:00,56.7,52.2,29.89,West,274,0.0,2.0,85,0.00,,,0.00,0,HR-IXP-WINDi_r2_v1.2,2013-04-25 08:06:00,
2013-04-25 04:11:00,56.8,52.3,29.90,West,261,0.0,3.0,85,0.00,,,0.00,0,HR-IXP-WINDi_r2_v1.2,2013-04-25 08:11:00,
2013-04-25 04:17:00,56.9,52.4,29.89,WSW,248,0.0,3.0,85,0.00,,,0.00,0,HR-IXP-WINDi_r2_v1.2,2013-04-25 08:17:00,
2013-04-25 04:22:00,56.9,52.4,29.89,WSW,251,0.0,2.0,85,0.00,,,0.00,0,HR-IXP-WINDi_r2_v1.2,2013-04-25 08:22:00,
2013-04-25 04:27:00,57.1,52.6,29.90,West,269,0.0,3.0,85,0.00,,,0.00,0,HR-IXP-WINDi_r2_v1.2,2013-04-25 08:27:00,
2013-04-25 04:33:00,57.1,52.6,29.90,West,259,1.0,3.0,85,0.00,,,0.00,0,HR-IXP-WINDi_r2_v1.2,2013-04-25 08:33:00,
2013-04-25 04:38:00,57.2,52.7,29.91,West,266,1.0,5.0,85,0.00,,,0.00,0,HR-IXP-WINDi_r2_v1.2,2013-04-25 08:38:00,
2013-04-25 04:43:00,57.3,52.8,29.91,West,262,0.0,5.0,85,0.27,,,0.02,0,HR-IXP-WINDi_r2_v1.2,2013-04-25 08:43:00,
2013-04-25 04:48:00,57.2,52.7,29.91,West,261,0.0,3.0,85,0.09,,,0.03,0,HR-IXP-WINDi_r2_v1.2,2013-04-25 08:48:00,
2013-04-25 04:54:00,57.2,52.7,29.91,West,260,0.0,2.0,85,0.09,,,0.03,0,HR-IXP-WINDi_r2_v1.2,2013-04-25 08:54:00,
2013-04-25 04:59:00,57.1,52.9,29.92,SW,236,0.0,1.0,86,0.05,,,0.03,0,HR-IXP-WINDi_r2_v1.2,2013-04-25 08:59:00,
2013-04-25 05:04:00,57.0,52.8,29.92,SW,236,0.0,1.0,86,0.04,,,0.03,0,HR-IXP-WINDi_r2_v1.2,2013-04-25 09:04:00,
2013-04-25 05:09:00,56.9,52.7,29.92,WSW,239,0.0,1.0,86,0.00,,,0.03,0,HR-IXP-WINDi_r2_v1.2,2013-04-25 09:09:00,
2013-04-25 05:15:00,56.9,52.7,29.93,WSW,239,0.0,1.0,86,0.00,,,0.03,0,HR-IXP-WINDi_r2_v1.2,2013-04-25 09:15:00,
2013-04-25 05:20:00,56.8,52.9,29.93,WSW,239,0.0,2.0,87,0.00,,,0.03,0,HR-IXP-WINDi_r2_v1.2,2013-04-25 09:20:00,
2013-04-25 05:25:00,56.8,52.9,29.93,WSW,239,0.0,2.0,87,0.00,,,0.04,0,HR-IXP-WINDi_r2_v1.2,2013-04-25 09:25:00,
2013-04-25 05:30:00,56.7,52.8,29.94,WSW,239,0.0,0.0,87,0.00,,,0.04,0,HR-IXP-WINDi_r2_v1.2,2013-04-25 09:30:00,
2013-04-25 05:35:00,56.6,52.7,29.96,South,175,0.0,1.0,87,0.00,,,0.04,0,HR-IXP-WINDi_r2_v1.2,2013-04-25 09:35:00,
2013-04-25 05:41:00,56.4,52.5,29.96,SE,132,0.0,3.0,87,0.00,,,0.04,0,HR-IXP-WINDi_r2_v1.2,2013-04-25 09:41:00,
2013-04-25 05:46:00,55.8,51.6,29.97,South,188,0.0,3.0,86,0.00,,,0.05,0,HR-IXP-WINDi_r2_v1.2,2013-04-25 09:46:00,
2013-04-25 05:51:00,55.4,50.9,29.97,SSE,153,0.0,3.0,85,0.00,,,0.05,0,HR-IXP-WINDi_r2_v1.2,2013-04-25 09:51:00,
2013-04-25 05:56:00,54.9,50.4,29.98,SSE,162,0.0,2.0,85,0.00,,,0.05,0,HR-IXP-WINDi_r2_v1.2,2013-04-25 09:56:00,
2013-04-25 06:01:00,54.4,49.6,29.98,SSE,156,0.0,1.0,84,0.00,,,0.05,0,HR-IXP-WINDi_r2_v1.2,2013-04-25 10:01:00,
2013-04-25 06:07:00,53.9,48.8,29.99,ESE,119,0.0,1.0,83,0.00,,,0.05,0,HR-IXP-WINDi_r2_v1.2,2013-04-25 10:07:00,
2013-04-25 06:12:00,53.2,47.5,29.99,SE,127,0.0,1.0,81,0.00,,,0.05,0,HR-IXP-WINDi_r2_v1.2,2013-04-25 10:12:00,
2013-04-25 06:17:00,52.8,46.7,29.99,WSW,247,0.0,2.0,80,0.00,,,0.05,0,HR-IXP-WINDi_r2_v1.2,2013-04-25 10:17:00,
2013-04-25 06:22:00,52.3,45.6,30.00,South,180,0.0,2.0,78,0.00,,,0.05,5,HR-IXP-WINDi_r2_v1.2,2013-04-25 10:22:00,
2013-04-25 06:27:00,51.9,44.5,30.01,SSE,151,0.0,2.0,76,0.00,,,0.05,7,HR-IXP-WINDi_r2_v1.2,2013-04-25 10:27:00,
2013-04-25 06:33:00,51.4,43.3,30.01,SW,219,0.0,3.0,74,0.00,,,0.05,9,HR-IXP-WINDi_r2_v1.2,2013-04-25 10:33:00,
2013-04-25 06:38:00,51.0,42.2,30.02,South,171,1.0,3.0,72,0.00,,,0.05,11,HR-IXP-WINDi_r2_v1.2,2013-04-25 10:38:00,
2013-04-25 06:43:00,50.8,41.7,30.03,ESE,107,0.0,2.0,71,0.00,,,0.05,21,HR-IXP-WINDi_r2_v1.2,2013-04-25 10:43:00,
2013-04-25 06:48:00,50.7,41.6,30.03,ESE,119,0.0,2.0,71,0.00,,,0.05,26,HR-IXP-WINDi_r2_v1.2,2013-04-25 10:48:00,
2013-04-25 06:54:00,50.6,41.5,30.04,WSW,257,0.0,2.0,71,0.00,,,0.05,16,HR-IXP-WINDi_r2_v1.2,2013-04-25 10:54:00,
2013-04-25 06:59:00,50.5,41.4,30.05,SE,131,0.0,2.0,71,0.00,,,0.05,32,HR-IXP-WINDi_r2_v1.2,2013-04-25 10:59:00,
2013-04-25 07:04:00,50.4,41.3,30.05,ESE,117,0.0,1.0,71,0.00,,,0.05,32,HR-IXP-WINDi_r2_v1.2,2013-04-25 11:04:00,
2013-04-25 07:10:00,50.3,41.2,30.05,ESE,123,0.0,1.0,71,0.00,,,0.05,42,HR-IXP-WINDi_r2_v1.2,2013-04-25 11:10:00,
2013-04-25 07:16:00,50.3,40.8,30.05,SSW,208,0.0,1.0,70,0.00,,,0.05,53,HR-IXP-WINDi_r2_v1.2,2013-04-25 11:16:00,
2013-04-25 07:21:00,50.3,40.5,30.05,SSE,159,0.0,1.0,69,0.00,,,0.05,58,HR-IXP-WINDi_r2_v1.2,2013-04-25 11:21:00,
2013-04-25 07:26:00,50.4,40.9,30.04,SE,143,0.0,1.0,70,0.00,,,0.05,54,HR-IXP-WINDi_r2_v1.2,2013-04-25 11:26:00,
2013-04-25 07:31:00,50.4,40.2,30.05,SSW,193,0.0,3.0,68,0.00,,,0.05,32,HR-IXP-WINDi_r2_v1.2,2013-04-25 11:31:00,
2013-04-25 07:37:00,50.4,40.2,30.06,SSW,204,0.0,3.0,68,0.00,,,0.05,47,HR-IXP-WINDi_r2_v1.2,2013-04-25 11:37:00,
2013-04-25 07:42:00,50.4,40.2,30.05,East,101,0.0,3.0,68,0.00,,,0.05,37,HR-IXP-WINDi_r2_v1.2,2013-04-25 11:42:00,
2013-04-25 07:47:00,50.5,40.3,30.06,ESE,104,0.0,3.0,68,0.00,,,0.05,16,HR-IXP-WINDi_r2_v1.2,2013-04-25 11:47:00,
2013-04-25 07:52:00,50.4,39.8,30.07,SW,218,0.0,2.0,67,0.00,,,0.05,21,HR-IXP-WINDi_r2_v1.2,2013-04-25 11:52:00,
2013-04-25 07:58:00,50.4,39.8,30.06,South,173,0.0,2.0,67,0.00,,,0.05,19,HR-IXP-WINDi_r2_v1.2,2013-04-25 11:58:00,
2013-04-25 08:03:00,50.3,39.7,30.08,SE,128,0.0,2.0,67,0.00,,,0.05,18,HR-IXP-WINDi_r2_v1.2,2013-04-25 12:03:00,
2013-04-25 08:08:00,50.2,39.6,30.07,SSE,150,0.0,2.0,67,0.00,,,0.05,19,HR-IXP-WINDi_r2_v1.2,2013-04-25 12:08:00,
2013-04-25 08:13:00,50.2,39.6,30.06,SSE,150,0.0,1.0,67,0.00,,,0.05,21,HR-IXP-WINDi_r2_v1.2,2013-04-25 12:13:00,
2013-04-25 08:19:00,50.1,39.5,30.08,West,270,0.0,1.0,67,0.00,,,0.05,26,HR-IXP-WINDi_r2_v1.2,2013-04-25 12:19:00,
2013-04-25 08:24:00,50.0,39.0,30.08,East,98,0.0,3.0,66,0.00,,,0.05,49,HR-IXP-WINDi_r2_v1.2,2013-04-25 12:24:00,
2013-04-25 08:29:00,50.0,39.0,30.07,WSW,248,0.0,3.0,66,0.00,,,0.05,44,HR-IXP-WINDi_r2_v1.2,2013-04-25 12:29:00,
2013-04-25 08:34:00,50.0,39.0,30.08,SW,232,0.0,1.0,66,0.00,,,0.05,47,HR-IXP-WINDi_r2_v1.2,2013-04-25 12:34:00,
2013-04-25 08:39:00,50.0,39.0,30.08,SW,232,1.0,1.0,66,0.00,,,0.05,35,HR-IXP-WINDi_r2_v1.2,2013-04-25 12:39:00,
2013-04-25 08:44:00,50.1,38.8,30.07,SSW,209,0.0,1.0,65,0.00,,,0.05,67,HR-IXP-WINDi_r2_v1.2,2013-04-25 12:44:00,
2013-04-25 08:49:00,50.1,38.8,30.07,SSW,198,0.0,1.0,65,0.00,,,0.05,84,HR-IXP-WINDi_r2_v1.2,2013-04-25 12:49:00,
2013-04-25 08:55:00,50.1,38.8,30.08,SSW,206,0.0,1.0,65,0.00,,,0.05,63,HR-IXP-WINDi_r2_v1.2,2013-04-25 12:55:00,
2013-04-25 09:00:00,50.2,38.5,30.09,SSW,208,0.0,2.0,64,0.00,,,0.05,74,HR-IXP-WINDi_r2_v1.2,2013-04-25 13:00:00,
2013-04-25 09:05:00,50.3,38.5,30.09,SSE,150,0.0,2.0,64,0.00,,,0.05,86,HR-IXP-WINDi_r2_v1.2,2013-04-25 13:05:00,
2013-04-25 09:10:00,50.4,38.2,30.09,SSE,163,0.0,1.0,63,0.00,,,0.05,200,HR-IXP-WINDi_r2_v1.2,2013-04-25 13:10:00,
2013-04-25 09:15:00,50.8,38.6,30.10,South,180,0.0,1.0,63,0.00,,,0.05,93,HR-IXP-WINDi_r2_v1.2,2013-04-25 13:15:00,
2013-04-25 09:21:00,51.0,38.4,30.09,South,180,0.0,1.0,62,0.00,,,0.05,197,HR-IXP-WINDi_r2_v1.2,2013-04-25 13:21:00,
2013-04-25 09:26:00,51.7,38.2,30.10,SW,232,0.0,2.0,60,0.00,,,0.05,601,HR-IXP-WINDi_r2_v1.2,2013-04-25 13:26:00,
2013-04-25 09:31:00,53.0,38.6,30.10,West,269,2.0,4.0,58,0.00,,,0.05,605,HR-IXP-WINDi_r2_v1.2,2013-04-25 13:31:00,
2013-04-25 09:36:00,53.3,38.4,30.10,WSW,246,0.0,4.0,57,0.00,,,0.05,125,HR-IXP-WINDi_r2_v1.2,2013-04-25 13:36:00,
2013-04-25 09:42:00,53.5,38.6,30.10,SE,140,0.0,4.0,57,0.00,,,0.05,141,HR-IXP-WINDi_r2_v1.2,2013-04-25 13:42:00,
2013-04-25 09:47:00,53.9,38.1,30.10,South,190,0.0,1.0,55,0.00,,,0.05,153,HR-IXP-WINDi_r2_v1.2,2013-04-25 13:47:00,
2013-04-25 09:52:00,54.7,38.3,30.10,SSW,192,0.0,3.0,54,0.00,,,0.05,559,HR-IXP-WINDi_r2_v1.2,2013-04-25 13:52:00,
2013-04-25 09:58:00,54.9,38.5,30.10,South,182,0.0,3.0,54,0.00,,,0.05,171,HR-IXP-WINDi_r2_v1.2,2013-04-25 13:58:00,
2013-04-25 10:03:00,55.3,38.4,30.09,SE,139,0.0,2.0,53,0.00,,,0.05,181,HR-IXP-WINDi_r2_v1.2,2013-04-25 14:03:00,
2013-04-25 10:08:00,55.7,37.8,30.10,SSE,155,0.0,2.0,51,0.00,,,0.05,153,HR-IXP-WINDi_r2_v1.2,2013-04-25 14:08:00,
2013-04-25 10:13:00,56.0,38.6,30.10,South,189,0.0,2.0,52,0.00,,,0.05,162,HR-IXP-WINDi_r2_v1.2,2013-04-25 14:13:00,
2013-04-25 10:18:00,56.8,37.8,30.11,South,184,0.0,1.0,49,0.00,,,0.05,192,HR-IXP-WINDi_r2_v1.2,2013-04-25 14:18:00,
2013-04-25 10:23:00,57.2,37.6,30.11,SW,217,0.0,2.0,48,0.00,,,0.05,148,HR-IXP-WINDi_r2_v1.2,2013-04-25 14:23:00,
2013-04-25 10:29:00,57.4,37.8,30.11,SSE,150,0.0,2.0,48,0.00,,,0.05,234,HR-IXP-WINDi_r2_v1.2,2013-04-25 14:29:00,
2013-04-25 10:34:00,58.1,37.4,30.11,WNW,288,3.0,4.0,46,0.00,,,0.05,199,HR-IXP-WINDi_r2_v1.2,2013-04-25 14:34:00,
2013-04-25 10:39:00,58.2,37.5,30.11,SSE,161,0.0,4.0,46,0.00,,,0.05,135,HR-IXP-WINDi_r2_v1.2,2013-04-25 14:39:00,
2013-04-25 10:44:00,58.6,38.4,30.11,SSE,157,0.0,4.0,47,0.00,,,0.05,118,HR-IXP-WINDi_r2_v1.2,2013-04-25 14:44:00,
2013-04-25 10:49:00,59.0,37.7,30.11,SW,220,0.0,2.0,45,0.00,,,0.05,123,HR-IXP-WINDi_r2_v1.2,2013-04-25 14:49:00,
2013-04-25 10:54:00,59.1,37.2,30.11,SW,215,0.0,2.0,44,0.00,,,0.05,230,HR-IXP-WINDi_r2_v1.2,2013-04-25 14:54:00,
2013-04-25 11:00:00,59.3,37.9,30.10,SSW,192,0.0,2.0,45,0.00,,,0.05,167,HR-IXP-WINDi_r2_v1.2,2013-04-25 15:00:00,
2013-04-25 11:05:00,59.5,37.5,30.10,South,174,0.0,2.0,44,0.00,,,0.05,204,HR-IXP-WINDi_r2_v1.2,2013-04-25 15:05:00,
2013-04-25 11:10:00,60.0,36.8,30.11,SW,217,0.0,2.0,42,0.00,,,0.05,512,HR-IXP-WINDi_r2_v1.2,2013-04-25 15:10:00,
2013-04-25 11:15:00,60.5,37.3,30.11,SW,216,0.0,1.0,42,0.00,,,0.05,503,HR-IXP-WINDi_r2_v1.2,2013-04-25 15:15:00,
2013-04-25 11:20:00,61.3,36.7,30.11,SSW,206,0.0,1.0,40,0.00,,,0.05,559,HR-IXP-WINDi_r2_v1.2,2013-04-25 15:20:00,
2013-04-25 11:26:00,62.3,37.6,30.11,SSW,206,0.0,1.0,40,0.00,,,0.05,784,HR-IXP-WINDi_r2_v1.2,2013-04-25 15:26:00,
2013-04-25 11:31:00,63.3,36.6,30.11,WSW,252,0.0,2.0,37,0.00,,,0.05,949,HR-IXP-WINDi_r2_v1.2,2013-04-25 15:31:00,
2013-04-25 11:36:00,63.8,36.3,30.11,SE,124,1.0,3.0,36,0.00,,,0.05,953,HR-IXP-WINDi_r2_v1.2,2013-04-25 15:36:00,
2013-04-25 11:41:00,62.5,34.4,30.12,SW,214,0.0,3.0,35,0.00,,,0.05,986,HR-IXP-WINDi_r2_v1.2,2013-04-25 15:41:00,
2013-04-25 11:46:00,63.7,36.2,30.12,SSE,162,0.0,3.0,36,0.00,,,0.05,970,HR-IXP-WINDi_r2_v1.2,2013-04-25 15:46:00,
2013-04-25 11:51:00,64.4,34.6,30.12,SE,142,0.0,2.0,33,0.00,,,0.05,977,HR-IXP-WINDi_r2_v1.2,2013-04-25 15:51:00,
2013-04-25 11:57:00,64.9,35.8,30.12,SE,136,0.0,2.0,34,0.00,,,0.05,981,HR-IXP-WINDi_r2_v1.2,2013-04-25 15:57:00,
2013-04-25 12:02:00,65.8,35.9,30.12,West,267,0.0,3.0,33,0.00,,,0.05,983,HR-IXP-WINDi_r2_v1.2,2013-04-25 16:02:00,
2013-04-25 12:07:00,66.7,37.4,30.12,SE,138,0.0,3.0,34,0.00,,,0.05,984,HR-IXP-WINDi_r2_v1.2,2013-04-25 16:07:00,
2013-04-25 12:12:00,66.5,34.9,30.12,West,261,0.0,4.0,31,0.00,,,0.05,993,HR-IXP-WINDi_r2_v1.2,2013-04-25 16:12:00,
2013-04-25 12:18:00,65.8,36.6,30.12,SW,229,0.0,4.0,34,0.00,,,0.05,991,HR-IXP-WINDi_r2_v1.2,2013-04-25 16:18:00,
2013-04-25 12:23:00,67.2,36.3,30.12,WSW,238,1.0,3.0,32,0.00,,,0.05,990,HR-IXP-WINDi_r2_v1.2,2013-04-25 16:23:00,
2013-04-25 12:28:00,67.5,35.0,30.12,SSE,148,0.0,2.0,30,0.00,,,0.05,995,HR-IXP-WINDi_r2_v1.2,2013-04-25 16:28:00,
2013-04-25 12:33:00,67.7,36.8,30.12,SE,132,1.0,2.0,32,0.00,,,0.05,993,HR-IXP-WINDi_r2_v1.2,2013-04-25 16:33:00,
2013-04-25 12:39:00,68.5,35.0,30.13,SE,132,0.0,2.0,29,0.00,,,0.05,1002,HR-IXP-WINDi_r2_v1.2,2013-04-25 16:39:00,
2013-04-25 12:44:00,68.1,34.6,30.13,SSE,164,0.0,2.0,29,0.00,,,0.05,995,HR-IXP-WINDi_r2_v1.2,2013-04-25 16:44:00,
2013-04-25 12:49:00,67.9,34.5,30.13,East,100,2.0,2.0,29,0.00,,,0.05,988,HR-IXP-WINDi_r2_v1.2,2013-04-25 16:49:00,
2013-04-25 12:54:00,67.9,34.5,30.13,SE,146,2.0,2.0,29,0.00,,,0.05,988,HR-IXP-WINDi_r2_v1.2,2013-04-25 16:54:00,
2013-04-25 12:59:00,67.0,33.7,30.13,WSW,255,0.0,2.0,29,0.00,,,0.05,986,HR-IXP-WINDi_r2_v1.2,2013-04-25 16:59:00,
2013-04-25 13:05:00,68.7,35.1,30.13,SSE,163,1.0,4.0,29,0.00,,,0.05,984,HR-IXP-WINDi_r2_v1.2,2013-04-25 17:05:00,
2013-04-25 13:10:00,69.6,35.0,30.13,SW,221,0.0,4.0,28,0.00,,,0.05,979,HR-IXP-WINDi_r2_v1.2,2013-04-25 17:10:00,
2013-04-25 13:15:00,70.0,35.4,30.13,SW,217,0.0,4.0,28,0.00,,,0.05,969,HR-IXP-WINDi_r2_v1.2,2013-04-25 17:15:00,
2013-04-25 13:20:00,70.1,35.5,30.13,SW,217,0.0,1.0,28,0.00,,,0.05,976,HR-IXP-WINDi_r2_v1.2,2013-04-25 17:20:00,
2013-04-25 13:26:00,70.8,34.2,30.13,SSW,202,0.0,2.0,26,0.00,,,0.05,972,HR-IXP-WINDi_r2_v1.2,2013-04-25 17:26:00,
2013-04-25 13:31:00,69.3,32.9,30.13,SW,220,0.0,2.0,26,0.00,,,0.05,958,HR-IXP-WINDi_r2_v1.2,2013-04-25 17:31:00,
2013-04-25 13:36:00,69.7,35.1,30.13,SE,127,1.0,2.0,28,0.00,,,0.05,956,HR-IXP-WINDi_r2_v1.2,2013-04-25 17:36:00,
2013-04-25 13:41:00,70.6,34.0,30.13,SSE,159,0.0,2.0,26,0.00,,,0.05,951,HR-IXP-WINDi_r2_v1.2,2013-04-25 17:41:00,
2013-04-25 13:46:00,71.0,33.4,30.13,SSE,157,0.0,2.0,25,0.00,,,0.05,947,HR-IXP-WINDi_r2_v1.2,2013-04-25 17:46:00,
2013-04-25 13:51:00,70.1,32.6,30.13,SSE,164,0.0,2.0,25,0.00,,,0.05,946,HR-IXP-WINDi_r2_v1.2,2013-04-25 17:51:00,
2013-04-25 13:57:00,69.8,33.4,30.13,South,169,0.0,2.0,26,0.00,,,0.05,928,HR-IXP-WINDi_r2_v1.2,2013-04-25 17:57:00,
2013-04-25 14:02:00,70.1,34.6,30.13,SSE,166,0.0,1.0,27,0.00,,,0.05,919,HR-IXP-WINDi_r2_v1.2,2013-04-25 18:02:00,
2013-04-25 14:07:00,70.3,33.8,30.13,SSE,166,0.0,2.0,26,0.00,,,0.05,916,HR-IXP-WINDi_r2_v1.2,2013-04-25 18:07:00,
2013-04-25 14:12:00,70.0,33.5,30.13,SSE,167,0.0,2.0,26,0.00,,,0.05,902,HR-IXP-WINDi_r2_v1.2,2013-04-25 18:12:00,
2013-04-25 14:17:00,69.3,33.9,30.13,South,182,0.0,2.0,27,0.00,,,0.05,874,HR-IXP-WINDi_r2_v1.2,2013-04-25 18:17:00,
2013-04-25 14:22:00,70.8,33.2,30.13,South,175,0.0,2.0,25,0.00,,,0.05,761,HR-IXP-WINDi_r2_v1.2,2013-04-25 18:22:00,
2013-04-25 14:27:00,70.4,33.9,30.13,South,178,0.0,2.0,26,0.00,,,0.05,853,HR-IXP-WINDi_r2_v1.2,2013-04-25 18:27:00,
2013-04-25 14:32:00,70.5,33.0,30.13,SSE,165,0.0,2.0,25,0.00,,,0.05,666,HR-IXP-WINDi_r2_v1.2,2013-04-25 18:32:00,
2013-04-25 14:37:00,71.5,33.8,30.13,SSE,165,0.0,2.0,25,0.00,,,0.05,722,HR-IXP-WINDi_r2_v1.2,2013-04-25 18:37:00,
2013-04-25 14:43:00,69.0,32.7,30.12,South,169,0.0,1.0,26,0.00,,,0.05,856,HR-IXP-WINDi_r2_v1.2,2013-04-25 18:43:00,
2013-04-25 14:48:00,68.5,34.1,30.12,South,169,0.0,1.0,28,0.00,,,0.05,733,HR-IXP-WINDi_r2_v1.2,2013-04-25 18:48:00,
2013-04-25 14:53:00,69.0,31.7,30.13,SW,235,0.0,1.0,25,0.00,,,0.05,656,HR-IXP-WINDi_r2_v1.2,2013-04-25 18:53:00,
2013-04-25 14:58:00,69.2,30.9,30.13,SSW,192,0.0,1.0,24,0.00,,,0.05,680,HR-IXP-WINDi_r2_v1.2,2013-04-25 18:58:00,
2013-04-25 15:03:00,69.6,32.2,30.13,East,82,1.0,1.0,25,0.00,,,0.05,524,HR-IXP-WINDi_r2_v1.2,2013-04-25 19:03:00,
2013-04-25 15:09:00,68.8,30.5,30.12,West,274,0.0,1.0,24,0.00,,,0.05,513,HR-IXP-WINDi_r2_v1.2,2013-04-25 19:09:00,
2013-04-25 15:14:00,69.0,31.7,30.13,West,269,1.0,1.0,25,0.00,,,0.05,615,HR-IXP-WINDi_r2_v1.2,2013-04-25 19:14:00,
2013-04-25 15:19:00,70.0,30.5,30.12,SSW,192,0.0,2.0,23,0.00,,,0.05,747,HR-IXP-WINDi_r2_v1.2,2013-04-25 19:19:00,
2013-04-25 15:24:00,68.2,29.0,30.12,West,277,3.0,6.0,23,0.00,,,0.05,728,HR-IXP-WINDi_r2_v1.2,2013-04-25 19:24:00,
2013-04-25 15:29:00,69.6,31.2,30.12,SSW,200,0.0,6.0,24,0.00,,,0.05,712,HR-IXP-WINDi_r2_v1.2,2013-04-25 19:29:00,
2013-04-25 15:34:00,70.4,30.8,30.12,South,185,0.0,6.0,23,0.00,,,0.05,698,HR-IXP-WINDi_r2_v1.2,2013-04-25 19:34:00,
2013-04-25 15:40:00,69.3,29.9,30.12,SW,215,0.0,2.0,23,0.00,,,0.05,687,HR-IXP-WINDi_r2_v1.2,2013-04-25 19:40:00,
2013-04-25 15:45:00,68.6,29.3,30.12,South,172,0.0,2.0,23,0.00,,,0.05,671,HR-IXP-WINDi_r2_v1.2,2013-04-25 19:45:00,
2013-04-25 15:50:00,68.0,27.7,30.12,South,178,0.0,1.0,22,0.00,,,0.05,654,HR-IXP-WINDi_r2_v1.2,2013-04-25 19:50:00,
2013-04-25 15:55:00,67.4,28.3,30.12,WNW,288,1.0,1.0,23,0.00,,,0.05,643,HR-IXP-WINDi_r2_v1.2,2013-04-25 19:55:00,
2013-04-25 16:00:00,67.4,29.3,30.12,West,277,0.0,2.0,24,0.00,,,0.05,629,HR-IXP-WINDi_r2_v1.2,2013-04-25 20:00:00,
2013-04-25 16:05:00,68.5,29.2,30.12,WSW,242,0.0,2.0,23,0.00,,,0.05,612,HR-IXP-WINDi_r2_v1.2,2013-04-25 20:05:00,
2013-04-25 16:10:00,68.5,30.3,30.13,WSW,242,0.0,1.0,24,0.00,,,0.05,596,HR-IXP-WINDi_r2_v1.2,2013-04-25 20:10:00,
2013-04-25 16:16:00,69.0,28.6,30.13,SW,217,0.0,2.0,22,0.00,,,0.05,585,HR-IXP-WINDi_r2_v1.2,2013-04-25 20:16:00,
2013-04-25 16:21:00,68.3,28.0,30.13,SSE,157,0.0,2.0,22,0.00,,,0.05,571,HR-IXP-WINDi_r2_v1.2,2013-04-25 20:21:00,
2013-04-25 16:26:00,68.1,26.7,30.13,SSE,155,0.0,2.0,21,0.00,,,0.05,74,HR-IXP-WINDi_r2_v1.2,2013-04-25 20:26:00,
2013-04-25 16:31:00,68.3,26.9,30.13,SW,229,0.0,2.0,21,0.00,,,0.05,65,HR-IXP-WINDi_r2_v1.2,2013-04-25 20:31:00,
2013-04-25 16:36:00,68.2,25.6,30.13,SW,219,0.0,2.0,20,0.00,,,0.05,54,HR-IXP-WINDi_r2_v1.2,2013-04-25 20:36:00,
2013-04-25 16:42:00,67.8,25.3,30.13,SW,218,0.0,2.0,20,0.00,,,0.05,49,HR-IXP-WINDi_r2_v1.2,2013-04-25 20:42:00,
2013-04-25 16:47:00,67.6,25.1,30.13,SSW,194,0.0,1.0,20,0.00,,,0.05,46,HR-IXP-WINDi_r2_v1.2,2013-04-25 20:47:00,
2013-04-25 16:52:00,67.2,25.9,30.14,West,260,0.0,4.0,21,0.00,,,0.05,46,HR-IXP-WINDi_r2_v1.2,2013-04-25 20:52:00,
2013-04-25 16:57:00,66.9,26.8,30.14,WSW,252,0.0,4.0,22,0.00,,,0.05,44,HR-IXP-WINDi_r2_v1.2,2013-04-25 20:57:00,
2013-04-25 17:03:00,66.5,26.5,30.14,WSW,247,0.0,1.0,22,0.00,,,0.05,44,HR-IXP-WINDi_r2_v1.2,2013-04-25 21:03:00,
2013-04-25 17:08:00,66.4,27.5,30.14,WSW,247,0.0,1.0,23,0.00,,,0.05,42,HR-IXP-WINDi_r2_v1.2,2013-04-25 21:08:00,
2013-04-25 17:13:00,66.0,27.1,30.14,SSE,156,0.0,2.0,23,0.00,,,0.05,40,HR-IXP-WINDi_r2_v1.2,2013-04-25 21:13:00,
2013-04-25 17:18:00,65.9,26.0,30.15,SSE,153,0.0,2.0,22,0.00,,,0.05,40,HR-IXP-WINDi_r2_v1.2,2013-04-25 21:18:00,
2013-04-25 17:24:00,65.8,27.0,30.15,SE,143,0.0,1.0,23,0.00,,,0.05,39,HR-IXP-WINDi_r2_v1.2,2013-04-25 21:24:00,
2013-04-25 17:29:00,65.8,27.0,30.15,SE,143,0.0,1.0,23,0.00,,,0.05,39,HR-IXP-WINDi_r2_v1.2,2013-04-25 21:29:00,
2013-04-25 17:34:00,65.4,26.6,30.15,SE,146,0.0,1.0,23,0.00,,,0.05,39,HR-IXP-WINDi_r2_v1.2,2013-04-25 21:34:00,
2013-04-25 17:40:00,65.4,27.7,30.15,South,183,0.0,1.0,24,0.00,,,0.05,39,HR-IXP-WINDi_r2_v1.2,2013-04-25 21:40:00,
2013-04-25 17:45:00,65.5,27.7,30.15,South,190,0.0,1.0,24,0.00,,,0.05,37,HR-IXP-WINDi_r2_v1.2,2013-04-25 21:45:00,
2013-04-25 17:51:00,65.5,27.7,30.16,South,184,0.0,1.0,24,0.00,,,0.05,35,HR-IXP-WINDi_r2_v1.2,2013-04-25 21:51:00,
2013-04-25 17:56:00,65.4,28.7,30.16,South,184,0.0,1.0,25,0.00,,,0.05,33,HR-IXP-WINDi_r2_v1.2,2013-04-25 21:56:00,
2013-04-25 18:01:00,65.0,27.3,30.16,South,184,0.0,1.0,24,0.00,,,0.05,33,HR-IXP-WINDi_r2_v1.2,2013-04-25 22:01:00,
2013-04-25 18:06:00,64.8,27.2,30.16,SSE,148,0.0,2.0,24,0.00,,,0.05,32,HR-IXP-WINDi_r2_v1.2,2013-04-25 22:06:00,
2013-04-25 18:12:00,64.6,27.0,30.16,SSE,150,0.0,2.0,24,0.00,,,0.05,32,HR-IXP-WINDi_r2_v1.2,2013-04-25 22:12:00,
2013-04-25 18:17:00,64.4,26.8,30.16,South,169,0.0,1.0,24,0.00,,,0.05,30,HR-IXP-WINDi_r2_v1.2,2013-04-25 22:17:00,
2013-04-25 18:22:00,64.3,26.7,30.16,South,169,0.0,1.0,24,0.00,,,0.05,28,HR-IXP-WINDi_r2_v1.2,2013-04-25 22:22:00,
2013-04-25 18:27:00,64.2,27.6,30.16,South,169,0.0,1.0,25,0.00,,,0.05,26,HR-IXP-WINDi_r2_v1.2,2013-04-25 22:27:00,
2013-04-25 18:32:00,64.2,27.6,30.16,South,169,0.0,1.0,25,0.00,,,0.05,25,HR-IXP-WINDi_r2_v1.2,2013-04-25 22:32:00,
2013-04-25 18:37:00,64.2,27.6,30.17,South,169,0.0,0.0,25,0.00,,,0.05,23,HR-IXP-WINDi_r2_v1.2,2013-04-25 22:37:00,
2013-04-25 18:42:00,64.1,27.5,30.17,South,169,0.0,0.0,25,0.00,,,0.05,23,HR-IXP-WINDi_r2_v1.2,2013-04-25 22:42:00,
2013-04-25 18:48:00,64.1,27.5,30.17,South,169,0.0,1.0,25,0.00,,,0.05,21,HR-IXP-WINDi_r2_v1.2,2013-04-25 22:48:00,
2013-04-25 18:53:00,64.0,26.5,30.17,South,169,0.0,1.0,24,0.00,,,0.05,19,HR-IXP-WINDi_r2_v1.2,2013-04-25 22:53:00,
2013-04-25 18:58:00,63.9,27.4,30.17,South,169,0.0,1.0,25,0.00,,,0.05,18,HR-IXP-WINDi_r2_v1.2,2013-04-25 22:58:00,
2013-04-25 19:03:00,63.8,27.3,30.17,South,169,0.0,0.0,25,0.00,,,0.05,16,HR-IXP-WINDi_r2_v1.2,2013-04-25 23:03:00,
2013-04-25 19:09:00,63.6,28.1,30.17,South,169,0.0,0.0,26,0.00,,,0.05,14,HR-IXP-WINDi_r2_v1.2,2013-04-25 23:09:00,
2013-04-25 19:14:00,63.4,27.9,30.18,South,169,0.0,0.0,26,0.00,,,0.05,12,HR-IXP-WINDi_r2_v1.2,2013-04-25 23:14:00,
2013-04-25 19:19:00,63.2,28.7,30.18,South,169,0.0,0.0,27,0.00,,,0.05,9,HR-IXP-WINDi_r2_v1.2,2013-04-25 23:19:00,
2013-04-25 19:24:00,63.1,27.6,30.18,South,169,0.0,0.0,26,0.00,,,0.05,5,HR-IXP-WINDi_r2_v1.2,2013-04-25 23:24:00,
2013-04-25 19:29:00,62.9,27.5,30.19,South,169,0.0,0.0,26,0.00,,,0.05,0,HR-IXP-WINDi_r2_v1.2,2013-04-25 23:29:00,
2013-04-25 19:34:00,62.6,28.1,30.19,South,169,0.0,0.0,27,0.00,,,0.05,0,HR-IXP-WINDi_r2_v1.2,2013-04-25 23:34:00,
2013-04-25 19:40:00,62.4,28.9,30.19,South,169,0.0,0.0,28,0.00,,,0.05,0,HR-IXP-WINDi_r2_v1.2,2013-04-25 23:40:00,
2013-04-25 19:45:00,62.0,28.5,30.19,South,169,0.0,0.0,28,0.00,,,0.05,0,HR-IXP-WINDi_r2_v1.2,2013-04-25 23:45:00,
2013-04-25 19:51:00,61.7,28.2,30.20,South,169,0.0,0.0,28,0.00,,,0.05,0,HR-IXP-WINDi_r2_v1.2,2013-04-25 23:51:00,
2013-04-25 19:56:00,61.4,28.8,30.20,South,169,0.0,0.0,29,0.00,,,0.05,0,HR-IXP-WINDi_r2_v1.2,2013-04-25 23:56:00,
2013-04-25 20:01:00,61.2,28.7,30.20,South,169,0.0,0.0,29,0.00,,,0.05,0,HR-IXP-WINDi_r2_v1.2,2013-04-26 00:01:00,
2013-04-25 20:06:00,60.9,28.4,30.20,South,169,0.0,0.0,29,0.00,,,0.05,0,HR-IXP-WINDi_r2_v1.2,2013-04-26 00:06:00,
2013-04-25 20:11:00,60.5,28.9,30.21,South,169,0.0,0.0,30,0.00,,,0.05,0,HR-IXP-WINDi_r2_v1.2,2013-04-26 00:11:00,
2013-04-25 20:16:00,60.2,28.6,30.21,South,169,0.0,0.0,30,0.00,,,0.05,0,HR-IXP-WINDi_r2_v1.2,2013-04-26 00:16:00,
2013-04-25 20:22:00,59.9,29.2,30.21,South,169,0.0,0.0,31,0.00,,,0.05,0,HR-IXP-WINDi_r2_v1.2,2013-04-26 00:22:00,
2013-04-25 20:27:00,59.5,28.8,30.21,South,169,0.0,0.0,31,0.00,,,0.05,0,HR-IXP-WINDi_r2_v1.2,2013-04-26 00:27:00,
2013-04-25 20:32:00,59.2,29.3,30.22,South,169,0.0,0.0,32,0.00,,,0.05,0,HR-IXP-WINDi_r2_v1.2,2013-04-26 00:32:00,
2013-04-25 20:38:00,58.9,29.8,30.22,South,169,0.0,0.0,33,0.00,,,0.05,0,HR-IXP-WINDi_r2_v1.2,2013-04-26 00:38:00,
2013-04-25 20:43:00,58.5,29.5,30.23,South,169,0.0,0.0,33,0.00,,,0.05,0,HR-IXP-WINDi_r2_v1.2,2013-04-26 00:43:00,
2013-04-25 20:48:00,58.2,29.9,30.23,South,169,0.0,0.0,34,0.00,,,0.05,0,HR-IXP-WINDi_r2_v1.2,2013-04-26 00:48:00,
2013-04-25 20:53:00,57.9,29.7,30.23,South,169,0.0,0.0,34,0.00,,,0.05,0,HR-IXP-WINDi_r2_v1.2,2013-04-26 00:53:00,
2013-04-25 20:58:00,57.6,29.4,30.23,South,169,0.0,0.0,34,0.00,,,0.05,0,HR-IXP-WINDi_r2_v1.2,2013-04-26 00:58:00,
2013-04-25 21:04:00,57.2,29.8,30.24,South,169,0.0,0.0,35,0.00,,,0.05,0,HR-IXP-WINDi_r2_v1.2,2013-04-26 01:04:00,
2013-04-25 21:09:00,57.0,29.6,30.24,South,169,0.0,0.0,35,0.00,,,0.05,0,HR-IXP-WINDi_r2_v1.2,2013-04-26 01:09:00,
2013-04-25 21:14:00,56.7,30.0,30.24,South,169,0.0,0.0,36,0.00,,,0.05,0,HR-IXP-WINDi_r2_v1.2,2013-04-26 01:14:00,
2013-04-25 21:20:00,56.4,29.8,30.25,South,169,0.0,0.0,36,0.00,,,0.05,0,HR-IXP-WINDi_r2_v1.2,2013-04-26 01:20:00,
2013-04-25 21:25:00,56.1,30.2,30.25,South,169,0.0,0.0,37,0.00,,,0.05,0,HR-IXP-WINDi_r2_v1.2,2013-04-26 01:25:00,
2013-04-25 21:31:00,55.8,30.5,30.25,South,169,0.0,0.0,38,0.00,,,0.05,0,HR-IXP-WINDi_r2_v1.2,2013-04-26 01:31:00,
2013-04-25 21:36:00,55.6,30.4,30.25,South,169,0.0,0.0,38,0.00,,,0.05,0,HR-IXP-WINDi_r2_v1.2,2013-04-26 01:36:00,
2013-04-25 21:41:00,55.3,30.1,30.25,South,169,0.0,0.0,38,0.00,,,0.05,0,HR-IXP-WINDi_r2_v1.2,2013-04-26 01:41:00,
2013-04-25 21:46:00,55.1,29.3,30.25,South,169,0.0,0.0,37,0.00,,,0.05,0,HR-IXP-WINDi_r2_v1.2,2013-04-26 01:46:00,
2013-04-25 21:51:00,55.0,29.2,30.25,South,169,0.0,0.0,37,0.00,,,0.05,0,HR-IXP-WINDi_r2_v1.2,2013-04-26 01:51:00,
2013-04-25 21:56:00,54.8,29.0,30.26,South,169,0.0,0.0,37,0.00,,,0.05,0,HR-IXP-WINDi_r2_v1.2,2013-04-26 01:56:00,
2013-04-25 22:02:00,54.6,28.8,30.26,South,169,0.0,0.0,37,0.00,,,0.05,0,HR-IXP-WINDi_r2_v1.2,2013-04-26 02:02:00,
2013-04-25 22:07:00,54.4,28.7,30.26,South,169,0.0,0.0,37,0.00,,,0.05,0,HR-IXP-WINDi_r2_v1.2,2013-04-26 02:07:00,
2013-04-25 22:12:00,54.2,29.1,30.26,South,169,0.0,0.0,38,0.00,,,0.05,0,HR-IXP-WINDi_r2_v1.2,2013-04-26 02:12:00,
2013-04-25 22:17:00,54.1,29.0,30.26,South,169,0.0,0.0,38,0.00,,,0.05,0,HR-IXP-WINDi_r2_v1.2,2013-04-26 02:17:00,
2013-04-25 22:22:00,54.0,28.9,30.26,South,169,0.0,0.0,38,0.00,,,0.05,0,HR-IXP-WINDi_r2_v1.2,2013-04-26 02:22:00,
2013-04-25 22:27:00,53.8,28.8,30.27,South,169,0.0,0.0,38,0.00,,,0.05,0,HR-IXP-WINDi_r2_v1.2,2013-04-26 02:27:00,
2013-04-25 22:32:00,53.7,28.7,30.27,South,169,0.0,0.0,38,0.00,,,0.05,0,HR-IXP-WINDi_r2_v1.2,2013-04-26 02:32:00,
2013-04-25 22:37:00,53.5,28.5,30.27,South,169,0.0,0.0,38,0.00,,,0.05,0,HR-IXP-WINDi_r2_v1.2,2013-04-26 02:37:00,
2013-04-25 22:43:00,53.3,29.6,30.27,South,169,0.0,0.0,40,0.00,,,0.05,0,HR-IXP-WINDi_r2_v1.2,2013-04-26 02:43:00,
2013-04-25 22:48:00,53.1,29.4,30.27,South,169,0.0,0.0,40,0.00,,,0.05,0,HR-IXP-WINDi_r2_v1.2,2013-04-26 02:48:00,
2013-04-25 22:53:00,52.9,29.8,30.27,South,169,0.0,0.0,41,0.00,,,0.05,0,HR-IXP-WINDi_r2_v1.2,2013-04-26 02:53:00,
2013-04-25 22:58:00,52.6,30.1,30.27,South,169,0.0,0.0,42,0.00,,,0.05,0,HR-IXP-WINDi_r2_v1.2,2013-04-26 02:58:00,
2013-04-25 23:04:00,52.4,30.5,30.27,South,169,0.0,0.0,43,0.00,,,0.05,0,HR-IXP-WINDi_r2_v1.2,2013-04-26 03:04:00,
2013-04-25 23:09:00,52.2,30.9,30.28,South,169,0.0,0.0,44,0.00,,,0.05,0,HR-IXP-WINDi_r2_v1.2,2013-04-26 03:09:00,
2013-04-25 23:14:00,52.0,31.3,30.28,South,169,0.0,0.0,45,0.00,,,0.05,0,HR-IXP-WINDi_r2_v1.2,2013-04-26 03:14:00,
2013-04-25 23:20:00,51.8,31.1,30.28,South,169,0.0,0.0,45,0.00,,,0.05,0,HR-IXP-WINDi_r2_v1.2,2013-04-26 03:20:00,
2013-04-25 23:25:00,51.5,30.8,30.28,South,169,0.0,0.0,45,0.00,,,0.05,0,HR-IXP-WINDi_r2_v1.2,2013-04-26 03:25:00,
2013-04-25 23:30:00,51.3,30.7,30.28,South,169,0.0,0.0,45,0.00,,,0.05,0,HR-IXP-WINDi_r2_v1.2,2013-04-26 03:30:00,
2013-04-25 23:35:00,51.1,29.9,30.28,South,169,0.0,0.0,44,0.00,,,0.05,0,HR-IXP-WINDi_r2_v1.2,2013-04-26 03:35:00,
2013-04-25 23:41:00,51.0,29.8,30.29,South,169,0.0,0.0,44,0.00,,,0.05,0,HR-IXP-WINDi_r2_v1.2,2013-04-26 03:41:00,
2013-04-25 23:46:00,50.8,29.6,30.29,South,169,0.0,0.0,44,0.00,,,0.05,0,HR-IXP-WINDi_r2_v1.2,2013-04-26 03:46:00,
2013-04-25 23:51:00,50.7,29.6,30.29,South,169,0.0,0.0,44,0.00,,,0.05,0,HR-IXP-WINDi_r2_v1.2,2013-04-26 03:51:00,
2013-04-25 23:56:00,50.5,29.9,30.29,South,169,0.0,0.0,45,0.00,,,0.05,0,HR-IXP-WINDi_r2_v1.2,2013-04-26 03:56:00,